Wind_Speed
10 11 11 11 11 11 14 15 14 13 13 16 21 24 24 24 22 20 19 17 17 17 16 14 13 13 14 14 16 16 17 17 15 14 14 14 15 16 16 16 16 16 15 15 15 16 16 18 19 20 20 19 21 23 24 23 23 24 24 24 25 25 25 24 23 22 20 18 15 13 12 12 14 14 15 15 15 16 17 18 19 20 21 23 25
11 12 13 12 12 12 13 15 14 13 14 17 22 24 24 24 22 21 19 17 18 18 17 15 13 13 14 14 15 15 15 15 13 13 13 14 14 15 15 15 15 14 14 14 14 15 15 16 17 17 18 17 18 20 21 21 21 22 22 22 23 23 23 23 23 22 22 21 19 15 12 9 8 8 8 9 10 11 13 14 15 17 18 20 22
13 14 14 14 13 13 14 15 15 14 15 19 22 24 25 24 23 21 20 18 18 18 17 15 14 13 13 14 14 14 14 13 12 12 11 12 13 13 13 13 13 13 13 13 13 13 13 14 15 16 16 16 16 17 18 18 18 19 19 20 20 20 20 21 22 22 23 23 23 21 17 13 10 8 7 6 5 6 7 9 11 13 15 17 20
15 15 16 16 15 14 15 16 16 16 17 20 23 24 24 24 23 22 20 19 18 18 17 16 15 14 14 14 13 13 13 12 11 10 11 11 11 11 12 12 12 11 11 11 11 12 12 12 13 13 14 14 14 14 15 16 16 16 17 17 18 18 19 19 20 21 23 23 24 24 22 18 15 13 11 8 6 4 3 5 7 10 13 16 19
17 17 16 17 16 16 16 17 17 16 17 21 23 23 24 24 23 22 21 18 17 18 18 17 16 15 14 13 12 12 11 11 10 10 10 11 10 10 10 11 11 10 10 10 10 11 11 10 11 11 12 12 12 12 13 13 14 14 14 14 16 17 18 18 19 20 21 23 24 25 24 22 19 17 15 12 9 5 5 5 7 10 13 16 18
18 18 17 18 18 18 17 18 18 17 18 22 24 24 25 24 23 23 21 19 18 18 18 17 16 15 15 14 13 12 11 10 10 10 10 10 10 10 10 10 10 9 9 9 9 9 9 8 8 9 9 10 11 11 11 11 12 12 12 13 14 15 16 17 18 19 20 21 23 25 25 24 22 20 18 16 13 9 6 7 9 11 14 17 20
17 18 18 18 18 18 18 18 20 18 19 23 24 26 27 26 25 24 22 21 20 19 18 18 17 16 15 14 13 12 11 11 10 10 10 10 10 10 10 10 9 9 9 9 9 8 8 7 6 7 8 8 9 9 10 10 11 11 12 12 13 14 15 16 17 17 18 20 22 24 25 25 24 22 21 18 16 13 10 9 10 12 15 18 20
16 18 19 18 18 18 18 19 21 21 21 24 26 27 28 27 26 25 23 22 20 20 19 18 17 16 15 14 14 13 12 12 11 11 10 10 10 10 10 9 9 10 9 8 8 7 6 6 5 6 6 7 7 8 9 9 10 11 12 12 13 13 14 15 16 16 17 18 20 22 24 25 26 24 22 19 17 15 14 12 12 13 15 17 19
16 17 19 19 19 19 18 19 22 23 23 26 28 28 28 28 27 26 24 23 22 21 20 19 18 17 16 15 14 14 13 12 12 11 11 11 10 10 10 9 9 9 8 7 7 6 5 4 4 4 4 5 6 8 9 9 10 11 12 12 13 13 14 15 16 16 17 17 18 19 21 23 25 25 23 20 18 17 15 14 13 14 15 17 18
17 16 17 19 19 19 19 19 21 24 25 26 28 30 30 30 29 27 26 24 23 22 21 20 19 18 17 16 15 14 13 13 12 12 11 10 10 9 9 9 8 8 7 6 5 4 4 3 2 2 3 4 5 7 8 10 10 10 11 12 12 13 14 15 16 17 17 18 18 18 19 20 22 24 24 22 20 18 17 16 15 15 16 16 18
17 15 15 18 20 21 21 20 20 24 27 28 30 32 33 32 31 29 27 26 24 23 22 21 20 18 17 16 15 14 13 12 12 12 11 10 10 9 8 8 8 7 6 6 5 4 3 2 1 0 1 2 4 6 9 11 10 10 11 11 12 13 14 14 16 17 17 18 18 18 18 18 19 21 22 22 21 19 18 17 16 16 16 17 18
19 17 15 18 20 22 23 21 20 24 29 30 32 33 35 34 32 31 29 28 26 24 24 22 21 19 18 17 15 14 13 13 12 12 11 10 10 9 8 8 7 7 6 5 5 4 3 3 2 2 2 3 5 9 11 12 11 10 11 11 11 13 13 14 15 16 18 18 19 19 18 17 17 18 20 21 21 20 19 18 18 17 17 18 19
22 19 16 18 21 23 23 21 21 24 29 32 33 34 35 35 34 32 30 29 27 25 24 23 21 20 18 17 15 14 14 13 12 11 11 10 10 9 9 8 7 6 5 5 4 4 3 3 3 3 4 6 8 9 11 12 11 11 11 11 12 12 13 14 15 16 17 19 19 20 19 19 18 18 19 19 20 20 20 19 19 19 19 19 20
24 20 18 18 20 23 24 22 23 25 29 34 35 34 35 35 34 33 31 29 27 25 24 22 21 19 18 17 16 15 14 13 12 11 10 9 9 9 8 7 6 5 5 4 4 4 4 3 4 4 6 8 9 11 12 13 13 12 12 12 12 13 13 14 15 16 17 18 20 21 21 21 20 20 20 20 20 20 21 20 20 20 20 21 22
25 22 20 19 20 23 24 24 25 27 30 35 36 36 36 36 35 33 31 29 27 25 23 22 21 20 18 17 16 15 14 13 12 11 10 10 10 8 7 7 6 6 6 6 6 5 6 6 6 7 8 9 10 12 13 14 14 14 14 13 13 13 14 14 15 16 17 18 19 21 22 22 22 22 22 21 21 22 22 22 21 21 21 21 22
26 24 22 22 22 23 24 24 26 28 30 35 38 37 38 38 37 35 33 30 28 26 24 23 22 20 19 19 18 17 16 15 14 13 12 11 10 9 8 8 8 8 8 8 8 8 9 9 9 9 10 11 11 13 14 15 15 16 16 15 15 15 15 15 15 16 17 18 19 20 21 22 23 23 23 23 22 22 23 23 24 23 23 23 23
28 27 24 23 23 24 25 26 27 29 30 34 38 39 39 39 38 36 35 33 31 29 27 26 24 23 22 21 20 19 18 17 16 15 15 14 12 11 10 10 10 11 11 10 10 11 11 11 11 11 11 12 13 13 13 14 15 16 17 17 17 17 17 17 17 18 18 19 20 20 22 22 23 24 24 24 24 24 24 24 25 26 26 26 25
30 30 26 24 24 25 26 29 31 32 31 32 36 39 40 41 40 39 37 36 34 32 30 29 27 25 23 23 22 21 20 19 18 18 17 15 14 13 14 14 13 13 13 12 12 12 12 13 13 12 12 12 13 13 13 14 15 16 18 19 19 20 19 19 19 20 20 21 22 22 23 23 24 25 25 26 25 25 25 25 26 27 27 28 28
33 32 28 26 26 26 28 30 32 33 32 31 35 40 42 42 42 41 40 38 36 35 33 31 29 26 25 25 24 22 21 20 20 19 18 17 17 17 17 16 16 15 14 13 13 13 13 13 13 13 12 12 13 13 14 14 15 17 18 20 21 22 22 22 22 22 23 24 25 25 25 26 26 26 27 28 28 27 27 27 27 27 28 30 31
35 33 30 28 27 27 27 28 29 32 34 33 35 41 44 44 45 44 42 40 39 38 36 34 31 29 28 27 25 24 22 21 21 21 20 20 20 19 18 18 17 17 16 15 14 14 14 14 14 15 14 13 14 15 15 16 17 18 19 21 22 23 25 25 25 25 26 26 27 28 28 29 29 29 29 30 30 30 30 29 28 28 29 30 32
37 35 32 30 27 25 25 25 25 28 33 34 35 42 46 46 46 46 44 42 40 39 38 36 34 33 31 29 27 25 24 24 24 23 22 21 21 21 20 21 20 19 18 16 15 15 15 15 16 17 17 16 16 17 18 19 20 21 22 23 24 25 27 28 28 29 29 28 28 29 30 31 32 32 32 32 32 33 33 33 32 31 31 32 33
39 37 35 31 28 26 25 26 27 27 31 35 36 42 48 48 47 47 44 42 40 39 39 38 38 35 33 30 28 27 27 27 26 24 22 22 22 22 23 23 22 21 20 18 17 16 16 17 17 18 19 19 19 20 21 22 23 24 24 25 26 27 28 30 30 31 32 31 31 31 32 33 34 35 35 35 35 36 36 36 35 35 35 35 36
41 38 36 33 30 28 27 28 29 27 29 33 36 42 48 48 47 46 45 43 41 40 40 39 38 36 33 31 30 29 29 28 26 24 22 22 23 24 25 25 24 23 22 21 19 19 18 18 18 19 20 21 21 22 23 24 25 26 27 28 28 29 30 31 32 32 34 35 35 34 34 35 36 37 38 38 38 38 38 38 38 38 38 38 39
43 38 37 35 32 30 29 29 30 29 29 32 36 41 46 47 46 46 45 43 42 41 40 39 38 35 33 32 31 30 29 29 27 25 23 23 24 26 26 26 26 25 25 24 22 21 20 20 20 21 22 23 24 25 27 28 29 29 30 30 31 32 32 33 33 34 35 37 38 38 37 37 38 39 40 41 42 41 41 41 41 42 42 42 42
45 41 40 38 35 33 31 29 30 30 30 33 37 41 45 47 47 46 45 43 42 41 40 39 38 36 34 33 31 31 31 31 30 28 26 26 27 28 28 28 28 28 27 26 25 24 23 23 23 24 25 26 28 30 31 32 32 33 33 33 33 33 34 35 35 35 36 38 40 41 41 41 41 42 43 44 44 44 44 44 45 46 46 46 47
47 45 44 42 40 37 32 29 31 32 33 36 40 43 46 46 47 46 45 44 43 41 40 39 38 37 35 34 34 33 33 33 32 31 30 30 30 30 30 30 30 30 29 28 27 27 26 26 27 28 29 30 32 33 34 34 36 36 36 35 35 35 36 37 37 38 38 40 41 43 44 45 45 46 46 46 46 46 47 48 49 50 50 51 51
51 49 47 46 44 39 35 32 33 35 37 39 42 45 46 46 46 46 46 45 43 42 40 39 38 38 37 37 36 36 35 34 34 33 33 33 33 32 31 31 31 32 32 30 29 29 29 30 30 32 33 34 35 36 37 37 38 39 39 38 37 38 38 39 40 40 41 42 44 45 47 48 49 49 49 49 49 50 50 52 53 54 55 55 55
52 49 48 48 45 41 38 35 33 35 37 40 43 45 46 46 46 47 47 46 45 43 42 41 40 39 40 39 39 38 37 36 36 35 35 35 34 33 33 33 33 33 33 32 32 32 33 34 34 35 37 38 38 39 40 40 40 41 41 41 40 40 41 42 43 43 44 45 46 47 49 50 51 52 52 53 53 54 54 55 56 57 58 58 58
52 50 49 49 45 42 41 38 35 35 37 40 43 45 46 47 46 47 48 47 46 45 44 43 42 42 41 41 40 39 38 37 37 36 35 35 34 34 34 34 34 34 34 34 34 35 36 37 37 38 39 40 41 42 42 42 42 42 42 43 43 43 44 45 46 47 48 48 49 50 51 53 54 55 56 57 57 58 58 58 58 59 59 59 59
52 51 51 49 47 45 43 39 36 36 37 40 43 45 47 47 47 47 47 47 46 46 45 45 44 43 42 41 41 40 39 38 36 35 35 35 35 35 35 35 36 36 36 36 36 37 38 38 39 40 41 42 42 43 44 44 44 43 43 44 45 46 47 48 49 50 50 51 53 54 55 56 58 59 60 60 60 60 60 60 59 59 59 59 58
52 52 53 51 48 48 46 41 37 36 38 40 43 45 46 47 47 47 46 46 46 46 45 45 45 44 43 42 42 41 40 38 37 37 37 37 37 37 37 37 38 37 37 37 37 38 39 39 40 41 42 43 44 45 45 45 45 45 45 46 48 49 50 50 51 53 54 55 56 58 59 59 60 61 61 61 60 59 59 58 57 57 57 56 54
54 55 55 55 53 53 51 45 40 39 40 41 43 45 46 47 47 47 47 47 47 46 46 45 45 44 43 43 42 42 41 39 39 39 39 38 38 39 39 39 38 38 37 37 38 39 39 40 42 43 44 45 46 46 46 46 46 46 47 48 50 52 53 54 55 56 58 59 59 60 60 60 60 60 60 59 58 57 55 54 54 54 54 54 52
55 57 58 59 57 55 54 50 47 45 44 43 43 44 45 46 47 47 48 48 47 47 46 45 45 45 44 43 43 43 42 41 40 40 39 40 40 39 39 39 39 38 39 39 40 41 42 43 45 46 46 47 48 48 48 48 48 49 49 51 53 55 57 58 59 59 60 60 60 59 58 57 57 56 56 56 55 54 52 51 51 52 52 52 50
55 58 59 59 57 56 56 55 52 50 48 46 45 45 45 46 47 48 49 48 48 47 47 46 46 45 45 44 44 43 43 42 41 41 41 41 41 40 39 40 40 41 41 42 42 43 44 45 46 47 48 49 49 50 50 51 51 52 52 54 56 58 59 60 60 59 59 58 57 55 54 54 53 53 53 53 53 52 50 49 49 50 50 50 49
53 56 57 57 58 57 58 57 55 53 51 49 48 47 46 46 47 48 49 49 48 48 47 47 46 46 46 45 45 44 43 43 43 42 42 43 43 42 42 42 43 43 44 44 44 45 46 46 47 48 50 51 51 52 54 54 55 55 56 56 57 57 58 57 57 56 55 54 53 52 51 51 51 50 51 51 51 51 51 49 48 48 47 48 48
47 51 55 58 59 58 56 55 55 55 54 52 50 49 48 48 47 47 48 48 48 47 47 47 46 47 47 46 45 44 44 44 44 44 44 44 44 44 44 43 44 44 45 45 45 46 47 47 48 50 52 53 55 56 57 58 58 57 57 56 55 54 52 52 51 51 51 50 50 50 50 50 49 49 49 50 50 50 50 50 49 47 46 45 46
42 48 54 58 59 60 59 57 55 54 54 55 53 51 50 49 48 48 48 47 47 48 48 47 47 47 46 45 45 44 44 44 45 45 45 44 44 44 44 44 44 45 46 46 46 48 49 50 51 53 54 55 56 57 58 58 57 56 53 51 49 48 48 47 47 47 47 47 48 48 48 48 48 47 48 49 50 49 49 50 49 46 45 44 44
42 46 50 53 57 60 60 60 58 55 54 54 54 53 52 51 51 50 49 49 48 49 49 48 48 47 46 46 45 45 45 45 45 46 45 45 45 45 45 45 46 46 47 48 49 51 52 53 53 54 54 54 54 54 53 52 51 50 48 47 46 45 45 46 45 45 45 45 46 47 47 47 47 47 47 49 49 48 48 48 47 46 44 44 42
42 43 44 48 53 56 58 60 61 59 57 56 54 54 53 53 53 52 51 51 50 50 49 49 49 48 47 47 47 47 47 47 47 47 47 47 47 47 47 48 48 49 50 51 52 52 52 52 52 51 50 49 48 47 47 46 46 45 45 45 45 45 45 45 44 44 44 44 45 46 47 47 46 47 48 50 50 49 48 47 46 46 44 42 39
42 41 42 44 46 50 54 57 59 60 60 58 57 56 55 55 54 54 53 53 52 51 50 50 50 50 49 49 49 48 48 48 48 48 48 48 49 49 49 49 49 49 50 49 49 49 48 47 46 44 44 43 43 43 43 44 44 44 44 44 44 45 45 43 42 43 45 46 47 47 48 49 48 48 49 50 51 50 49 47 46 46 44 39 35
42 42 43 42 41 44 48 51 54 57 57 57 57 57 57 56 56 55 55 54 53 52 52 51 51 51 51 50 50 49 49 49 49 48 48 48 49 48 48 47 47 46 45 44 43 42 41 41 40 39 40 40 40 41 42 43 44 44 44 44 43 44 43 42 42 44 46 48 49 49 50 51 51 51 51 52 52 52 50 48 47 47 44 36 29
44 43 43 41 41 42 43 45 48 50 51 53 54 55 55 55 55 55 55 54 53 53 53 52 52 52 52 51 50 49 48 46 46 45 45 45 44 44 43 42 41 40 39 39 38 37 37 37 37 38 38 39 40 40 41 43 44 45 45 44 44 45 45 43 44 46 48 49 50 51 52 51 52 55 55 54 54 54 53 51 47 46 45 36 27
45 44 44 43 42 41 41 41 43 44 45 47 49 50 51 51 51 51 51 51 51 51 50 50 49 48 47 46 45 44 43 41 41 40 40 40 39 39 38 38 37 36 36 36 36 36 36 36 37 37 38 39 40 41 42 44 45 46 46 46 47 48 48 47 47 49 51 51 51 51 50 48 51 55 57 57 57 56 55 53 48 46 45 37 31
46 46 45 45 43 41 41 41 41 42 43 43 44 45 45 45 45 46 46 45 45 44 43 41 40 39 38 38 37 37 37 37 37 37 36 36 36 36 36 36 36 36 35 36 36 36 36 36 37 37 38 39 41 42 43 45 47 48 48 48 49 50 50 50 50 51 54 54 53 52 49 47 50 55 57 59 60 58 57 54 49 47 44 38 37
48 47 46 46 44 43 44 43 43 43 43 42 42 42 41 42 42 42 41 40 39 37 37 36 36 35 36 35 35 36 36 36 35 35 35 35 35 35 35 36 36 36 36 37 37 37 37 38 38 39 40 41 42 43 44 45 47 49 50 50 51 52 52 52 52 53 55 56 56 55 52 50 54 58 59 61 62 61 59 54 50 48 43 39 43
51 50 49 48 46 46 46 45 45 44 43 43 43 42 41 41 41 40 38 37 36 37 37 37 37 37 37 37 37 37 37 36 36 36 37 37 37 37 37 37 38 38 38 39 39 39 40 40 41 42 42 43 44 45 45 46 47 49 51 53 54 54 55 55 55 55 57 58 58 58 56 55 58 62 63 64 64 63 60 54 50 48 43 42 46
54 54 54 51 48 48 48 47 47 46 45 45 44 43 43 42 41 40 39 38 38 39 39 39 40 39 39 39 39 39 39 39 38 39 39 40 40 40 40 40 41 41 41 42 42 43 43 43 44 45 45 46 47 47 48 47 47 49 51 54 55 56 57 58 57 58 59 60 60 61 61 61 62 63 64 65 64 64 62 55 50 48 45 42 42
56 57 57 55 52 51 51 50 49 49 48 47 46 45 44 43 43 42 41 41 41 41 42 42 42 41 41 41 41 41 41 41 42 42 42 42 43 43 43 43 44 44 44 45 45 46 46 46 47 48 48 49 50 50 50 50 50 50 52 54 56 57 59 60 60 61 61 61 62 63 64 63 61 60 60 61 61 62 61 56 50 47 46 43 38
58 59 60 59 57 55 54 54 53 51 50 50 49 49 47 46 45 45 45 44 44 44 44 44 44 43 43 43 44 44 44 44 45 45 45 45 46 46 46 46 46 46 47 48 48 48 49 49 50 51 51 51 52 53 53 53 53 53 53 54 57 59 60 62 63 63 63 62 63 63 62 60 57 55 54 55 56 58 57 54 49 46 45 44 40
62 61 62 62 61 59 58 57 56 54 52 52 52 52 51 50 49 49 49 48 48 47 47 46 46 46 46 47 47 46 47 48 48 48 48 49 49 49 49 49 49 49 50 51 51 51 52 52 53 54 54 55 55 56 56 56 56 56 56 56 58 60 62 63 64 64 63 62 62 61 60 57 55 53 53 54 56 56 53 50 46 43 43 44 41
66 65 64 64 63 62 61 60 59 57 56 55 55 54 54 54 53 53 52 51 51 51 50 50 50 50 50 51 51 50 50 52 51 51 52 52 52 53 52 52 52 53 54 54 54 55 55 56 56 57 58 58 58 58 59 59 59 59 58 59 60 61 63 64 65 64 62 62 62 60 58 58 56 55 56 59 59 56 51 47 44 40 38 39 37
Wind_Direction
232 230 229 226 221 214 212 210 205 199 193 181 178 181 184 187 183 177 176 176 171 168 169 170 167 163 157 155 155 156 155 153 148 145 140 136 135 134 130 126 122 119 114 105 101 100 96 92 89 85 82 80 79 77 73 69 67 66 63 61 61 60 59 57 56 54 54 52 53 59 66 74 76 75 73 73 73 70 66 63 59 53 47 40 35
227 225 227 228 223 213 212 214 209 199 191 181 178 183 186 188 185 179 178 179 175 172 173 174 171 167 163 160 160 159 159 158 152 146 140 136 133 131 130 127 124 120 114 108 106 102 97 93 90 86 81 76 74 74 72 69 65 63 60 57 55 54 51 49 47 46 46 46 44 44 44 48 54 57 56 55 61 64 64 62 57 49 38 29 23
226 221 225 229 222 210 211 215 210 199 189 179 179 184 186 188 187 181 180 183 180 176 175 176 175 172 169 166 166 165 165 165 160 155 149 142 136 133 131 129 125 120 115 112 110 106 99 94 89 85 81 76 71 69 70 67 63 61 57 54 52 49 47 43 41 41 42 42 41 40 38 34 28 20 11 7 18 38 51 52 45 36 24 13 8
229 224 226 229 223 211 209 213 210 202 190 179 179 185 187 189 190 184 183 184 183 179 177 179 179 178 176 174 173 171 169 168 166 165 160 153 146 139 135 133 128 120 115 114 113 109 101 95 90 85 83 81 74 68 67 63 58 56 54 50 48 45 42 40 37 36 37 37 36 35 33 31 28 22 14 6 353 337 354 15 12 7 0 356 354
232 232 230 228 224 213 210 213 212 205 192 179 178 184 188 191 192 188 186 186 184 182 181 182 182 182 181 179 177 174 170 167 165 165 164 160 155 149 143 138 130 121 116 115 113 110 106 99 93 90 88 87 80 68 63 57 51 48 47 46 44 41 37 34 33 32 32 33 32 31 30 28 26 22 18 14 8 342 301 306 325 335 338 341 343
235 236 234 231 226 216 212 215 216 208 194 180 176 181 188 192 195 192 187 186 188 185 183 184 183 183 183 181 180 178 174 169 165 162 161 161 157 153 147 141 132 124 120 118 115 114 112 108 99 93 91 87 80 68 58 50 44 40 38 38 37 35 31 28 27 27 27 28 27 28 29 27 25 23 21 18 16 8 334 304 310 321 327 332 336
237 237 237 236 230 221 215 217 220 213 195 182 176 180 188 191 196 196 190 188 189 187 185 185 184 184 184 183 182 180 177 173 169 164 162 162 159 155 150 144 136 130 127 124 123 122 119 114 105 96 91 86 79 69 58 47 39 33 27 25 26 27 24 21 19 20 22 24 24 25 27 27 25 24 24 25 23 17 7 345 331 331 334 339 344
240 235 235 233 230 225 217 216 222 217 199 185 179 182 187 191 197 197 193 191 190 187 186 185 184 184 183 183 182 181 180 177 173 169 166 166 165 162 157 149 142 137 134 132 131 129 125 120 110 99 94 88 81 69 57 46 37 29 21 16 15 16 16 13 12 12 15 19 21 23 25 26 25 24 24 25 26 22 16 9 2 356 356 357 1
245 236 232 231 229 225 218 216 222 222 208 190 182 183 187 191 197 197 195 193 191 188 187 185 184 183 182 182 182 181 181 177 175 173 171 170 168 165 160 154 149 145 144 143 142 139 137 131 117 102 90 82 74 63 49 37 28 21 15 13 11 10 11 9 7 6 8 12 15 19 23 24 24 24 23 22 22 22 20 15 10 8 7 8 9
246 236 230 232 230 223 220 220 223 225 217 197 184 183 187 192 196 197 196 194 193 190 187 186 185 183 181 180 180 180 180 178 177 175 174 173 171 168 163 159 156 153 153 153 153 154 155 153 131 98 80 74 63 47 30 17 11 7 6 8 9 9 9 7 5 3 3 5 8 12 17 21 21 22 23 22 18 16 15 13 9 5 3 3 3
248 238 226 229 231 228 224 221 222 227 221 204 189 185 188 192 196 196 196 195 195 192 189 187 186 183 182 181 180 180 179 179 178 176 175 173 172 170 167 166 164 163 163 164 165 173 183 194 193 142 60 47 24 7 359 357 358 358 360 4 7 8 8 6 3 359 359 359 1 5 8 12 15 17 20 21 19 15 11 9 5 1 358 355 354
246 244 232 227 232 233 227 218 218 226 225 211 196 190 189 192 195 196 196 197 197 194 191 189 186 185 184 183 182 180 180 180 180 178 176 174 174 172 171 172 172 172 172 175 181 190 205 225 241 259 289 321 335 340 342 345 349 352 356 360 2 3 5 4 1 358 356 354 355 358 1 4 6 8 12 15 16 15 11 8 5 1 357 354 352
241 246 241 230 229 234 230 221 219 225 227 217 202 194 193 192 194 195 197 198 198 197 195 191 189 188 186 184 183 183 183 185 184 183 182 182 181 180 179 180 183 186 189 192 197 205 216 231 250 270 290 307 321 332 337 341 342 344 348 353 354 355 357 359 358 356 354 352 351 350 352 355 358 359 2 5 7 8 9 8 6 4 360 356 353
238 241 243 234 225 227 229 228 226 226 226 220 207 198 195 194 195 196 198 200 200 200 198 194 193 192 189 188 187 188 190 191 192 193 194 196 197 197 197 196 200 208 216 223 223 223 230 246 262 278 294 307 319 328 332 332 332 333 337 341 343 345 348 350 352 351 350 348 347 346 346 348 350 352 353 356 358 358 360 2 3 4 1 357 355
239 239 242 238 226 223 228 231 229 225 224 222 211 201 196 194 195 197 199 202 203 203 200 198 198 196 195 194 194 195 197 197 199 200 203 208 211 214 216 218 220 228 236 243 245 247 253 262 273 283 292 302 312 320 322 322 322 322 325 328 331 335 337 340 342 343 344 344 344 343 343 344 346 347 348 349 350 351 351 352 354 355 356 354 353
238 240 240 240 232 223 224 230 231 225 223 222 215 205 198 195 195 196 199 202 204 204 203 202 202 201 200 201 200 202 204 203 205 207 210 216 220 224 230 235 238 242 246 250 253 254 257 263 271 278 286 295 304 310 313 313 313 314 315 318 321 325 327 330 332 333 335 336 338 339 339 340 342 343 343 344 344 344 344 344 345 346 346 347 346
233 236 237 240 239 229 224 228 230 225 223 224 219 210 201 196 195 196 198 201 203 205 204 205 205 205 205 207 207 209 211 212 213 216 219 221 225 230 236 240 244 247 250 252 254 256 259 262 267 273 282 291 298 304 307 307 307 309 310 312 315 318 321 322 323 324 325 327 330 332 334 336 337 337 338 339 339 338 338 338 339 339 339 339 339
227 231 232 236 238 233 225 224 226 224 222 225 222 214 205 199 196 196 199 201 204 205 205 207 208 208 210 213 215 217 219 220 222 225 227 228 230 233 236 239 242 248 250 251 253 258 262 266 269 273 281 289 296 300 302 302 303 305 307 310 313 316 317 317 317 318 319 320 322 325 328 330 332 333 334 334 334 333 333 333 334 334 333 333 332
226 227 228 231 231 229 224 221 224 225 222 224 224 217 208 202 198 197 199 202 204 206 207 208 210 211 214 217 219 222 224 227 230 233 235 235 236 236 238 241 245 249 251 250 252 257 264 271 274 277 279 286 293 297 299 300 301 303 306 310 313 314 315 314 314 315 315 317 318 320 322 324 327 328 329 330 330 329 329 328 328 328 328 327 327
224 226 227 229 229 230 227 220 220 225 222 221 224 220 212 206 202 200 201 202 204 206 208 209 211 213 216 218 220 222 225 229 231 233 235 236 237 239 242 244 246 247 247 247 251 257 264 270 275 277 279 282 288 294 297 300 301 304 307 310 312 313 313 313 314 314 314 315 316 317 318 320 321 324 325 326 326 326 326 325 324 324 323 323 323
222 225 226 227 231 235 234 223 217 222 222 218 221 223 216 209 205 203 203 204 206 208 209 209 212 214 216 217 217 218 221 225 228 230 232 234 237 239 240 242 243 243 244 246 251 255 260 265 270 276 281 284 289 292 296 299 302 304 307 308 310 310 311 312 312 312 312 312 313 314 315 316 318 319 321 322 323 323 323 322 322 321 320 320 320
220 223 224 227 231 232 231 225 216 217 221 217 217 221 217 212 209 206 205 206 208 209 210 211 213 215 215 214 215 217 220 225 229 231 233 235 237 238 239 241 242 242 243 246 250 254 259 263 269 277 284 289 293 295 297 300 302 304 306 307 308 308 308 309 310 310 310 310 311 312 313 314 315 316 317 318 319 319 319 319 319 319 318 318 318
218 220 224 227 229 228 228 225 217 214 219 217 215 218 217 214 211 209 207 208 209 211 212 213 215 216 216 216 219 223 227 230 233 235 239 241 242 243 243 243 244 243 244 247 250 255 260 265 270 278 285 289 294 297 299 301 303 304 305 305 305 305 305 305 306 307 307 308 309 309 310 311 312 313 314 315 316 316 317 317 317 317 316 316 316
216 215 220 224 226 228 229 226 218 214 215 213 212 215 215 214 214 211 209 210 211 213 213 215 217 217 219 222 226 231 233 235 237 240 245 248 249 249 248 246 245 245 247 249 253 258 264 269 274 278 282 287 292 295 298 301 303 303 303 302 302 302 302 302 304 305 305 306 306 307 307 308 309 311 311 312 313 314 315 315 315 315 314 314 314
214 212 217 221 223 226 227 224 220 215 211 208 208 211 213 214 214 212 211 211 213 214 214 215 217 219 222 226 231 235 237 238 240 243 248 251 253 253 252 249 248 248 251 253 257 262 267 273 277 280 283 287 291 294 297 298 300 302 302 301 300 300 300 300 301 302 303 303 304 305 306 307 308 309 310 310 311 312 313 312 312 311 311 312 311
214 213 215 218 219 219 220 219 218 216 211 207 206 208 211 213 214 213 212 213 215 216 216 216 218 221 226 230 234 238 240 241 243 246 249 251 252 253 253 252 251 252 255 257 260 265 269 274 278 282 286 288 291 293 294 296 297 299 300 300 300 299 299 299 300 300 301 302 303 304 305 307 308 308 309 309 309 309 310 309 309 309 309 309 309
214 213 214 218 217 215 216 216 215 215 212 208 205 206 209 212 214 214 214 215 217 217 218 219 221 225 229 233 236 240 242 244 246 248 250 251 252 253 253 252 252 254 257 260 263 267 271 274 278 282 285 287 289 291 293 294 296 298 299 299 298 298 298 299 299 300 301 302 303 304 305 306 307 307 307 307 307 307 307 307 306 306 307 307 307
216 214 215 219 218 216 218 218 217 218 216 211 207 206 208 211 213 215 216 218 219 220 221 222 224 228 232 235 238 241 243 245 247 249 251 251 252 253 254 254 254 256 260 262 265 268 271 274 278 280 283 285 288 291 292 294 296 297 298 298 298 298 299 299 300 301 302 302 303 303 304 304 304 305 305 305 305 305 305 305 304 304 304 305 305
217 216 217 220 220 220 222 223 222 222 221 217 211 208 209 211 213 216 218 219 221 222 224 225 227 230 233 236 238 240 243 245 247 249 250 251 252 254 256 257 257 259 261 263 265 267 270 273 276 279 282 286 289 291 293 294 295 296 297 298 299 299 299 300 300 301 301 302 302 302 302 302 302 302 303 303 304 303 303 303 302 303 303 303 304
216 216 219 221 221 222 225 227 226 224 223 221 217 213 212 212 214 216 219 221 222 224 226 228 229 230 233 236 238 240 242 244 247 248 249 250 250 252 255 257 258 259 260 262 264 267 270 273 277 280 283 286 288 290 292 293 294 295 296 297 298 298 298 298 299 299 300 300 300 300 300 300 300 300 301 301 301 301 301 301 302 303 302 302 303
215 216 218 220 221 223 225 226 224 222 223 222 220 218 217 216 216 218 219 221 223 225 226 228 229 230 232 235 239 241 243 245 246 247 247 248 249 251 253 255 257 258 261 263 266 268 271 275 277 280 283 285 287 288 289 290 292 294 295 296 296 296 296 297 297 298 298 298 298 299 299 299 298 298 298 299 299 299 301 302 303 303 302 303 304
215 215 216 218 219 221 223 225 225 223 223 223 221 220 219 219 219 219 221 222 224 225 227 229 231 232 233 236 239 243 244 245 246 247 248 249 250 251 253 255 258 260 262 265 268 271 273 275 277 279 281 283 285 287 288 290 292 293 294 294 294 295 296 296 296 296 296 297 297 297 297 297 297 297 297 298 299 301 303 304 305 304 303 304 306
217 215 216 217 218 219 222 226 227 226 224 223 223 222 221 221 221 222 223 224 226 227 229 230 232 235 236 238 240 243 245 246 247 248 250 251 251 253 255 257 260 262 264 266 268 271 273 275 277 279 281 283 285 287 289 290 291 292 293 293 294 294 294 295 295 295 295 295 296 296 297 297 297 298 299 299 301 303 305 306 305 304 305 307 308
219 217 217 218 219 221 223 225 226 226 225 225 224 224 223 223 223 223 224 225 227 228 230 231 233 236 238 240 241 243 245 247 248 250 251 253 254 255 257 259 261 263 265 267 269 271 274 276 279 281 283 284 286 287 288 289 290 291 292 292 292 293 293 293 294 294 295 295 296 297 298 298 299 300 301 302 304 305 306 306 306 307 309 310 310
221 220 219 218 220 222 223 224 225 227 227 227 226 226 226 225 226 226 227 228 229 230 232 234 235 237 239 241 242 244 246 248 250 251 253 254 256 257 258 260 262 265 267 269 272 274 276 278 280 282 284 285 286 287 288 288 289 290 291 291 291 291 292 293 294 295 296 297 298 299 299 300 301 302 304 305 306 307 309 310 310 311 312 312 311
224 223 222 221 221 222 224 224 225 226 227 227 228 228 228 229 229 230 230 231 232 233 234 236 237 239 241 243 244 246 248 250 252 253 254 255 257 259 260 262 264 267 269 271 274 276 277 279 281 282 284 285 286 286 286 287 288 289 289 290 291 292 292 293 295 297 298 300 300 301 301 302 303 304 305 306 306 308 310 311 312 313 313 312 310
226 225 224 223 223 224 224 225 226 226 226 227 227 228 230 231 231 232 232 232 233 234 235 237 239 240 242 244 246 248 249 251 253 254 256 258 259 262 263 265 267 269 271 273 275 277 278 280 281 282 283 283 284 284 285 286 287 288 290 291 292 293 293 294 296 297 299 300 300 301 301 302 303 304 305 304 305 308 309 311 312 313 313 311 308
226 226 225 225 225 226 226 226 226 227 227 227 227 228 230 231 233 234 235 235 236 237 238 239 241 242 244 245 247 249 250 252 254 256 258 260 262 264 266 267 269 271 273 275 276 277 278 279 280 281 281 282 283 284 285 287 289 291 293 294 295 295 295 296 298 300 299 299 299 300 300 301 302 304 304 304 305 307 309 310 310 311 311 310 308
227 228 227 227 227 227 228 228 228 228 229 229 229 230 231 232 234 235 236 238 239 240 241 243 244 246 247 248 249 251 252 254 256 258 260 262 264 266 268 269 271 272 274 275 275 276 277 277 278 279 280 281 283 285 287 289 291 293 294 295 296 296 297 299 300 300 299 299 299 301 302 303 303 304 305 306 308 309 310 310 310 309 310 310 308
227 229 230 230 230 230 230 230 230 231 231 231 232 233 234 234 235 237 238 239 241 243 245 246 247 248 249 251 252 253 255 257 259 261 263 265 266 267 268 270 271 271 272 273 273 274 275 276 277 278 280 282 285 287 289 290 291 292 293 294 294 295 296 299 300 300 300 301 302 303 305 306 306 306 307 309 310 311 311 311 310 308 308 310 310
226 227 229 230 231 232 232 233 233 233 233 234 234 235 236 237 238 239 240 241 243 244 246 247 249 250 251 253 254 256 258 260 261 262 263 264 265 266 266 267 267 268 269 270 271 273 275 277 279 281 283 285 287 288 289 290 291 291 292 293 293 294 296 299 301 301 301 303 304 305 306 308 308 308 309 310 310 310 311 311 309 306 305 307 310
224 226 228 228 230 232 233 234 235 236 235 236 236 235 236 238 239 241 242 244 245 246 248 249 251 253 254 255 256 256 257 258 258 259 260 261 262 262 263 264 264 265 267 269 271 273 276 278 281 283 284 285 287 288 289 290 290 291 293 295 296 297 299 301 302 302 302 303 304 305 306 308 308 308 308 309 308 308 309 309 308 305 302 299 302
222 223 225 226 228 230 231 233 235 236 236 236 237 237 237 237 239 240 242 244 246 247 248 250 251 252 253 253 253 253 252 252 253 254 255 258 259 261 262 264 265 267 268 270 273 275 277 279 280 282 284 285 286 288 289 290 291 293 295 298 299 300 301 303 304 304 303 303 303 304 305 306 305 305 306 306 306 305 306 307 307 306 300 292 296
221 220 222 224 226 228 229 230 231 233 233 234 234 235 235 235 235 236 237 238 240 241 242 243 244 245 246 247 247 248 248 249 251 253 255 257 259 261 263 265 267 269 271 273 275 276 278 280 281 282 284 285 286 288 289 292 294 295 298 299 300 300 301 302 303 303 302 302 303 304 305 304 303 303 303 303 303 303 303 304 306 306 300 290 296
223 221 221 222 223 225 227 227 228 230 230 230 230 230 230 230 230 229 229 230 231 234 235 235 237 239 241 242 244 247 248 250 252 254 256 258 259 261 263 265 268 270 272 274 276 277 280 282 283 284 285 286 287 289 291 293 294 296 298 299 299 300 301 301 302 302 302 302 303 304 304 303 302 301 301 301 300 300 301 301 304 306 299 288 295
223 224 225 224 222 223 225 225 227 229 229 229 228 227 227 227 227 226 226 227 229 232 235 236 237 238 240 242 244 247 250 252 255 257 259 260 261 262 263 265 267 269 272 274 276 278 281 283 284 285 286 287 289 290 290 292 294 296 298 298 299 300 301 301 302 302 302 302 303 303 302 302 300 300 299 299 299 298 299 300 302 305 298 288 292
222 225 227 226 224 223 224 225 226 228 230 230 230 228 227 227 227 227 228 229 231 234 236 238 239 239 241 243 245 248 250 252 255 257 259 261 263 264 265 267 269 271 274 277 279 280 282 283 285 286 287 289 290 290 291 293 294 295 296 297 298 300 300 301 302 302 302 303 303 303 302 302 300 299 299 299 299 299 299 299 300 301 299 292 289
220 223 225 227 226 226 226 226 227 228 229 231 232 231 230 229 229 230 231 232 234 237 239 240 242 243 244 245 247 249 250 252 254 256 258 260 262 264 266 268 270 273 275 277 279 281 282 284 285 287 288 289 290 291 292 294 294 294 295 296 298 299 300 301 302 302 303 303 303 304 304 304 302 301 301 301 302 301 300 299 297 298 298 296 291
220 221 223 225 226 227 228 229 230 230 230 231 233 234 235 234 234 234 235 237 238 240 242 244 245 247 248 250 251 252 253 255 256 258 259 261 263 265 268 270 272 274 276 278 279 281 283 285 286 287 288 289 290 291 292 293 294 294 296 297 299 300 301 301 302 302 303 303 303 304 305 304 302 301 302 304 305 305 302 299 296 295 295 296 295
224 222 222 223 224 226 228 230 231 232 232 233 234 235 237 238 239 239 239 241 242 244 246 247 249 251 252 254 255 256 257 258 259 261 263 265 266 268 270 272 275 276 278 280 282 283 285 286 287 288 289 290 291 292 293 294 295 296 297 299 299 300 301 301 301 302 303 303 302 304 305 305 302 299 300 304 307 307 304 299 294 292 293 294 293
229 226 224 223 223 224 226 228 231 232 233 234 235 236 237 239 240 241 242 244 245 247 249 250 252 253 254 256 257 258 260 261 262 263 265 266 268 270 272 274 276 277 279 281 283 285 286 287 288 289 290 291 292 293 294 295 296 298 299 300 300 300 300 300 301 302 302 302 302 303 305 305 303 300 300 302 305 307 305 298 289 285 286 286 284
Height
10969 10970 10972 10972 10973 10974 10975 10976 10976 10976 10976 10977 10979 10982 10985 10988 10990 10991 10993 10995 10997 10998 11000 11001 11002 11003 11004 11005 11006 11007 11007 11008 11008 11008 11008 11008 11009 11009 11009 11009 11009 11009 11009 11009 11009 11008 11008 11008 11007 11007 11007 11008 11007 11007 11006 11007 11006 11005 11005 11005 11004 11003 11003 11003 11003 11003 11002 11002 11001 11000 10999 10998 10996 10995 10993 10991 10989 10987 10985 10984 10982 10981 10980 10979 10978
10968 10969 10971 10972 10973 10974 10975 10976 10977 10976 10976 10977 10979 10983 10986 10988 10990 10991 10993 10995 10997 10999 11000 11001 11003 11004 11005 11006 11007 11008 11009 11009 11009 11010 11010 11010 11010 11010 11010 11011 11011 11011 11011 11011 11010 11010 11010 11010 11010 11009 11009 11009 11009 11008 11008 11008 11008 11007 11007 11007 11006 11006 11005 11005 11005 11004 11004 11003 11002 11000 10999 10998 10997 10996 10995 10993 10991 10989 10987 10985 10984 10982 10981 10980 10979
10967 10968 10970 10972 10972 10973 10975 10976 10977 10976 10976 10976 10979 10982 10985 10988 10990 10991 10993 10995 10997 10999 11001 11002 11004 11005 11006 11007 11008 11009 11009 11010 11010 11011 11011 11011 11011 11011 11012 11012 11012 11012 11012 11012 11012 11012 11012 11012 11012 11012 11011 11010 11010 11010 11009 11009 11009 11008 11008 11009 11008 11008 11007 11007 11006 11005 11004 11003 11002 11001 10999 10998 10997 10996 10994 10993 10992 10990 10989 10987 10985 10983 10982 10981 10980
10966 10967 10969 10971 10972 10973 10974 10976 10976 10976 10975 10976 10978 10982 10985 10988 10990 10992 10993 10995 10998 11000 11001 11002 11004 11005 11006 11007 11008 11009 11010 11011 11011 11012 11012 11012 11012 11012 11013 11013 11013 11013 11013 11013 11013 11013 11013 11013 11013 11013 11012 11011 11011 11011 11010 11010 11010 11009 11009 11010 11009 11009 11008 11008 11007 11006 11005 11004 11003 11001 11000 10998 10997 10995 10994 10992 10992 10990 10989 10987 10986 10985 10983 10982 10981
10965 10966 10967 10969 10971 10972 10973 10975 10976 10976 10975 10975 10978 10982 10986 10988 10990 10992 10993 10996 10998 10999 11001 11002 11004 11005 11006 11007 11008 11009 11010 11011 11012 11012 11012 11013 11013 11013 11014 11014 11014 11014 11014 11014 11014 11014 11014 11014 11014 11013 11013 11013 11012 11012 11011 11011 11011 11011 11010 11010 11010 11009 11009 11009 11008 11007 11006 11005 11003 11002 11000 10999 10997 10995 10993 10992 10991 10990 10989 10988 10986 10985 10984 10983 10981
10963 10965 10966 10967 10969 10970 10972 10975 10976 10976 10975 10975 10977 10981 10985 10988 10990 10992 10993 10995 10997 10999 11001 11002 11004 11005 11006 11007 11008 11009 11010 11011 11012 11013 11013 11013 11014 11014 11014 11014 11014 11015 11015 11015 11015 11014 11015 11014 11014 11014 11014 11014 11013 11013 11012 11012 11012 11012 11012 11011 11010 11010 11009 11009 11008 11008 11007 11005 11004 11003 11001 10999 10997 10995 10993 10991 10990 10989 10988 10988 10986 10985 10984 10983 10982
10962 10963 10964 10965 10967 10969 10971 10973 10976 10976 10975 10975 10976 10980 10984 10987 10990 10991 10993 10995 10997 10999 11000 11002 11003 11004 11006 11007 11008 11009 11010 11011 11012 11013 11013 11014 11014 11014 11015 11015 11015 11015 11015 11015 11015 11015 11015 11015 11015 11015 11015 11015 11015 11014 11014 11014 11013 11013 11012 11011 11011 11010 11010 11009 11009 11008 11007 11006 11004 11003 11001 10999 10997 10996 10994 10992 10991 10989 10988 10987 10987 10985 10984 10983 10982
10960 10961 10961 10963 10965 10967 10969 10972 10975 10975 10974 10974 10975 10978 10982 10986 10989 10991 10993 10995 10996 10998 11000 11001 11003 11004 11005 11006 11008 11009 11010 11011 11012 11013 11014 11014 11014 11015 11015 11015 11015 11015 11015 11015 11016 11016 11016 11016 11016 11016 11016 11016 11015 11015 11015 11015 11014 11014 11013 11012 11011 11010 11010 11009 11009 11008 11008 11007 11005 11004 11002 10999 10998 10996 10994 10993 10991 10990 10989 10988 10987 10986 10985 10984 10983
10958 10959 10959 10961 10963 10965 10967 10969 10972 10974 10974 10973 10974 10977 10981 10984 10987 10990 10992 10994 10996 10997 10999 11000 11002 11003 11004 11006 11007 11008 11009 11010 11011 11012 11013 11014 11014 11014 11014 11014 11015 11015 11015 11015 11016 11016 11016 11016 11016 11016 11016 11016 11016 11016 11016 11015 11015 11014 11013 11012 11011 11010 11010 11009 11009 11008 11007 11006 11005 11004 11002 11000 10998 10996 10995 10993 10992 10991 10989 10988 10987 10986 10985 10984 10983
10957 10957 10958 10960 10961 10963 10965 10967 10970 10973 10973 10972 10972 10975 10979 10982 10985 10988 10991 10993 10995 10996 10998 10999 11001 11002 11004 11005 11006 11007 11009 11010 11011 11012 11013 11013 11014 11014 11014 11014 11014 11015 11015 11015 11015 11016 11016 11016 11016 11016 11016 11016 11016 11016 11016 11015 11015 11014 11014 11013 11012 11011 11010 11009 11009 11008 11007 11006 11005 11004 11002 11001 10999 10997 10995 10994 10992 10991 10990 10989 10987 10986 10985 10984 10983
10955 10955 10955 10957 10959 10961 10962 10964 10966 10970 10972 10971 10971 10973 10976 10980 10983 10987 10990 10992 10994 10995 10997 10998 11000 11001 11003 11004 11005 11006 11008 11009 11010 11011 11012 11012 11013 11013 11014 11014 11014 11014 11015 11015 11015 11015 11016 11016 11016 11016 11016 11016 11016 11015 11015 11015 11015 11014 11014 11013 11012 11011 11010 11009 11009 11008 11006 11005 11004 11003 11002 11001 10999 10998 10996 10994 10993 10991 10990 10989 10988 10987 10985 10984 10983
10952 10952 10953 10955 10957 10959 10960 10961 10963 10967 10970 10970 10970 10971 10974 10977 10981 10985 10988 10990 10992 10994 10996 10997 10999 11000 11002 11003 11004 11006 11007 11008 11009 11010 11011 11012 11012 11013 11013 11013 11014 11014 11014 11015 11015 11015 11015 11015 11015 11015 11015 11015 11015 11015 11015 11015 11014 11014 11014 11013 11012 11011 11010 11009 11008 11007 11006 11005 11004 11003 11002 11001 11000 10998 10997 10995 10993 10992 10991 10990 10988 10987 10986 10984 10983
10949 10950 10951 10953 10955 10958 10959 10960 10962 10965 10968 10969 10969 10970 10973 10976 10980 10983 10986 10989 10991 10993 10995 10997 10998 11000 11001 11002 11004 11005 11006 11007 11009 11010 11010 11011 11012 11012 11013 11013 11013 11013 11014 11014 11014 11015 11015 11015 11015 11015 11015 11015 11015 11015 11014 11014 11013 11013 11013 11012 11012 11011 11010 11009 11008 11007 11006 11004 11003 11002 11001 11000 10999 10998 10997 10995 10994 10992 10991 10989 10988 10987 10986 10984 10983
10947 10948 10950 10951 10953 10955 10956 10957 10960 10963 10966 10968 10968 10970 10972 10976 10979 10982 10985 10988 10990 10993 10995 10997 10998 10999 11000 11001 11003 11004 11005 11007 11008 11009 11010 11011 11011 11012 11012 11012 11013 11013 11013 11013 11014 11014 11014 11015 11015 11015 11014 11014 11014 11014 11014 11013 11013 11012 11012 11012 11011 11010 11009 11008 11007 11006 11005 11004 11003 11001 11000 10999 10998 10997 10996 10995 10993 10992 10990 10989 10988 10987 10985 10984 10982
10944 10946 10947 10948 10949 10951 10952 10955 10958 10961 10964 10965 10966 10968 10971 10974 10978 10981 10985 10987 10989 10992 10994 10996 10997 10998 10999 11000 11002 11003 11004 11005 11006 11008 11008 11009 11010 11011 11011 11011 11012 11012 11012 11012 11013 11013 11014 11014 11014 11014 11014 11014 11013 11013 11013 11012 11012 11011 11011 11010 11010 11009 11008 11008 11007 11006 11005 11004 11003 11001 11000 10998 10997 10996 10995 10994 10993 10991 10990 10988 10987 10986 10985 10983 10982
10942 10942 10944 10945 10946 10945 10946 10951 10955 10958 10961 10963 10965 10967 10969 10972 10975 10979 10983 10986 10988 10990 10992 10994 10995 10997 10998 10999 11000 11001 11002 11003 11004 11006 11007 11007 11008 11009 11010 11010 11010 11011 11011 11011 11012 11012 11012 11013 11013 11013 11013 11013 11013 11012 11012 11011 11010 11010 11009 11009 11008 11008 11007 11007 11006 11005 11004 11003 11002 11001 10999 10998 10996 10995 10994 10993 10992 10990 10989 10987 10986 10984 10983 10982 10980
10940 10940 10941 10944 10944 10943 10944 10949 10953 10956 10958 10961 10963 10966 10968 10970 10974 10977 10980 10983 10985 10988 10990 10992 10993 10994 10995 10996 10998 10999 11000 11001 11002 11003 11004 11006 11007 11007 11008 11008 11009 11009 11009 11010 11010 11011 11011 11011 11011 11012 11012 11011 11011 11011 11010 11010 11009 11008 11008 11007 11006 11006 11006 11005 11004 11003 11002 11001 11000 10999 10998 10997 10995 10994 10993 10992 10990 10989 10987 10986 10984 10983 10981 10980 10978
10936 10937 10940 10942 10943 10944 10945 10948 10951 10953 10955 10959 10962 10965 10967 10969 10971 10974 10977 10980 10982 10985 10987 10989 10990 10992 10993 10994 10995 10997 10998 10999 11000 11001 11002 11003 11005 11005 11006 11006 11007 11007 11008 11008 11009 11009 11009 11009 11010 11010 11010 11010 11009 11009 11009 11008 11008 11007 11006 11005 11005 11004 11004 11003 11002 11002 11001 11000 10998 10997 10996 10995 10994 10993 10991 10990 10989 10988 10986 10985 10983 10981 10979 10978 10976
10932 10934 10937 10939 10940 10942 10943 10945 10948 10950 10954 10957 10961 10963 10965 10967 10969 10971 10974 10976 10979 10982 10984 10986 10988 10990 10991 10992 10993 10994 10995 10996 10997 10998 10999 11001 11002 11002 11003 11004 11005 11005 11006 11006 11007 11007 11007 11007 11007 11008 11008 11008 11007 11007 11007 11006 11006 11006 11005 11004 11003 11002 11001 11000 11000 10999 10998 10997 10996 10995 10994 10993 10992 10991 10990 10988 10987 10986 10985 10983 10982 10980 10978 10976 10974
10928 10930 10932 10933 10935 10937 10939 10942 10945 10947 10951 10954 10958 10961 10962 10965 10966 10968 10971 10973 10976 10978 10980 10983 10985 10986 10988 10990 10991 10992 10993 10994 10995 10995 10996 10998 10998 10999 11001 11001 11002 11003 11003 11004 11004 11005 11005 11005 11005 11005 11005 11006 11006 11005 11005 11004 11004 11004 11003 11003 11002 11000 10999 10998 10997 10997 10996 10995 10994 10992 10991 10990 10989 10988 10987 10986 10985 10983 10982 10981 10980 10978 10976 10974 10971
10924 10926 10928 10929 10932 10934 10937 10940 10942 10944 10948 10950 10954 10957 10959 10962 10963 10965 10968 10970 10972 10975 10977 10980 10981 10983 10985 10987 10989 10990 10991 10991 10991 10992 10994 10995 10996 10997 10998 10998 10999 11000 11001 11001 11002 11002 11003 11003 11003 11003 11003 11003 11003 11003 11003 11003 11002 11002 11002 11001 11000 10999 10997 10996 10995 10994 10993 10992 10991 10990 10988 10987 10985 10985 10984 10983 10982 10980 10979 10978 10976 10975 10973 10971 10969
10920 10922 10924 10927 10929 10932 10935 10937 10937 10940 10943 10946 10950 10954 10956 10959 10961 10963 10966 10968 10970 10973 10975 10977 10979 10981 10983 10985 10986 10987 10987 10988 10989 10991 10992 10993 10994 10994 10995 10995 10996 10998 10998 10999 11000 11000 11001 11001 11001 11001 11001 11001 11001 11001 11001 11001 11000 11000 10999 10999 10998 10997 10995 10993 10992 10991 10989 10989 10988 10987 10986 10984 10982 10981 10980 10979 10978 10977 10976 10974 10973 10971 10969 10968 10965
10916 10919 10922 10924 10927 10929 10932 10933 10932 10935 10939 10943 10946 10950 10953 10956 10959 10961 10963 10966 10969 10971 10973 10975 10977 10979 10982 10983 10984 10985 10986 10987 10988 10989 10991 10991 10992 10992 10992 10993 10994 10995 10996 10997 10998 10998 10999 10999 10999 10999 10999 10999 10999 10999 10998 10998 10998 10998 10997 10996 10995 10994 10993 10991 10990 10988 10987 10985 10984 10983 10983 10981 10980 10978 10976 10975 10974 10973 10972 10970 10969 10967 10965 10964 10962
10912 10917 10919 10921 10924 10926 10928 10929 10930 10931 10935 10939 10943 10946 10950 10954 10956 10958 10961 10964 10966 10968 10971 10973 10975 10978 10980 10981 10982 10983 10984 10985 10986 10988 10989 10990 10990 10990 10991 10992 10992 10993 10994 10995 10995 10996 10997 10997 10997 10997 10997 10996 10996 10996 10996 10995 10995 10995 10994 10993 10992 10991 10990 10989 10987 10986 10984 10982 10980 10979 10978 10978 10976 10975 10973 10971 10970 10969 10968 10966 10964 10963 10961 10959 10957
10909 10913 10916 10917 10919 10921 10923 10926 10927 10929 10931 10934 10938 10942 10946 10949 10952 10955 10958 10961 10963 10965 10968 10970 10973 10975 10976 10977 10979 10980 10981 10982 10984 10986 10987 10987 10987 10988 10988 10990 10990 10991 10992 10992 10993 10994 10994 10994 10994 10994 10994 10994 10993 10993 10993 10992 10991 10991 10991 10990 10989 10988 10986 10985 10984 10983 10981 10979 10977 10975 10974 10973 10973 10971 10970 10968 10966 10965 10963 10961 10960 10958 10956 10954 10953
10904 10907 10910 10911 10913 10916 10919 10922 10923 10925 10928 10930 10933 10937 10941 10944 10948 10951 10955 10958 10960 10962 10965 10967 10970 10972 10973 10974 10975 10976 10978 10980 10981 10983 10984 10984 10984 10985 10986 10987 10988 10988 10989 10990 10991 10991 10991 10992 10992 10991 10991 10991 10990 10990 10989 10989 10988 10987 10987 10986 10985 10984 10983 10982 10981 10980 10978 10976 10974 10972 10970 10969 10968 10967 10966 10964 10963 10961 10959 10956 10954 10952 10951 10949 10947
10897 10902 10905 10905 10908 10913 10915 10917 10919 10921 10923 10925 10929 10933 10937 10941 10945 10948 10952 10954 10956 10959 10962 10965 10967 10968 10969 10970 10972 10973 10975 10977 10978 10980 10980 10981 10981 10982 10983 10984 10985 10986 10986 10987 10988 10988 10989 10989 10989 10988 10987 10987 10987 10986 10986 10985 10985 10984 10983 10983 10982 10980 10979 10978 10977 10976 10975 10973 10971 10969 10967 10965 10963 10962 10961 10959 10958 10957 10955 10952 10949 10946 10944 10943 10941
10894 10900 10903 10902 10906 10911 10912 10914 10917 10919 10921 10923 10926 10929 10933 10937 10941 10944 10947 10950 10953 10956 10958 10961 10963 10964 10965 10966 10968 10970 10972 10974 10975 10976 10977 10977 10978 10979 10980 10981 10982 10982 10983 10984 10985 10985 10985 10985 10985 10984 10983 10983 10983 10983 10982 10982 10981 10980 10979 10978 10978 10976 10975 10974 10973 10971 10970 10969 10967 10965 10963 10961 10959 10957 10955 10954 10952 10951 10949 10947 10944 10941 10938 10936 10934
10892 10898 10900 10901 10905 10909 10911 10913 10915 10917 10919 10921 10924 10926 10929 10933 10936 10940 10943 10946 10949 10951 10953 10956 10958 10959 10960 10962 10965 10967 10968 10970 10971 10972 10973 10974 10975 10976 10976 10977 10978 10979 10980 10980 10981 10981 10981 10981 10981 10980 10980 10979 10979 10979 10978 10977 10977 10976 10975 10974 10973 10972 10971 10969 10968 10967 10965 10964 10963 10961 10959 10956 10954 10951 10950 10948 10946 10944 10943 10941 10939 10936 10933 10930 10928
10888 10894 10896 10899 10903 10906 10909 10911 10912 10914 10916 10918 10921 10923 10926 10929 10932 10936 10939 10942 10945 10947 10949 10952 10953 10955 10957 10959 10961 10962 10964 10966 10967 10969 10970 10970 10972 10973 10973 10974 10974 10975 10976 10977 10977 10977 10977 10977 10977 10976 10976 10975 10975 10975 10974 10973 10973 10972 10972 10970 10968 10967 10966 10965 10963 10962 10961 10959 10957 10956 10954 10951 10948 10946 10944 10943 10941 10939 10936 10935 10933 10930 10927 10924 10922
10885 10889 10892 10896 10900 10903 10904 10905 10907 10910 10912 10914 10917 10920 10923 10926 10928 10931 10935 10938 10940 10943 10945 10947 10949 10951 10953 10955 10956 10957 10960 10962 10964 10965 10966 10967 10968 10969 10969 10970 10971 10972 10973 10974 10974 10974 10974 10974 10973 10972 10972 10971 10971 10970 10970 10969 10969 10968 10968 10966 10964 10962 10961 10961 10959 10957 10955 10954 10952 10950 10948 10945 10943 10940 10937 10936 10935 10933 10931 10929 10927 10924 10921 10918 10916
10877 10881 10885 10889 10892 10894 10897 10899 10902 10905 10907 10910 10912 10915 10918 10921 10924 10928 10930 10933 10935 10938 10940 10943 10945 10947 10949 10951 10952 10954 10956 10958 10960 10961 10962 10963 10965 10965 10965 10966 10967 10969 10970 10970 10970 10970 10969 10969 10968 10968 10967 10966 10966 10966 10965 10965 10965 10964 10964 10962 10960 10957 10956 10955 10954 10952 10950 10948 10946 10944 10942 10939 10937 10933 10930 10928 10927 10927 10926 10924 10921 10917 10914 10911 10910
10871 10875 10878 10881 10885 10890 10894 10896 10898 10900 10903 10906 10909 10911 10914 10917 10920 10923 10925 10928 10930 10933 10936 10938 10940 10943 10945 10947 10949 10950 10952 10954 10956 10957 10959 10959 10961 10961 10962 10963 10964 10965 10965 10965 10966 10966 10965 10965 10964 10963 10963 10962 10961 10961 10960 10960 10960 10960 10960 10958 10955 10952 10950 10949 10948 10946 10944 10942 10940 10939 10936 10933 10931 10928 10924 10922 10922 10921 10921 10919 10915 10911 10908 10905 10903
10866 10869 10874 10879 10884 10888 10889 10891 10894 10896 10900 10903 10906 10908 10911 10913 10916 10918 10920 10923 10926 10928 10931 10934 10936 10939 10940 10943 10945 10947 10948 10950 10952 10954 10955 10955 10956 10958 10959 10960 10960 10960 10960 10960 10961 10961 10961 10961 10960 10958 10957 10957 10956 10956 10955 10955 10955 10954 10954 10953 10951 10948 10944 10942 10941 10940 10938 10936 10934 10932 10930 10928 10926 10923 10919 10917 10916 10915 10915 10914 10911 10907 10904 10900 10897
10861 10866 10872 10877 10880 10881 10883 10887 10890 10893 10897 10900 10902 10904 10907 10910 10912 10914 10917 10920 10923 10925 10927 10930 10933 10935 10936 10938 10941 10943 10945 10946 10947 10949 10950 10951 10951 10953 10955 10956 10956 10956 10956 10956 10957 10957 10957 10956 10955 10954 10952 10951 10951 10950 10949 10948 10949 10949 10948 10947 10946 10943 10940 10937 10935 10933 10932 10930 10928 10926 10924 10922 10920 10918 10915 10913 10911 10910 10908 10908 10906 10904 10901 10897 10892
10861 10866 10868 10871 10874 10876 10880 10884 10887 10890 10893 10896 10899 10901 10904 10907 10909 10912 10915 10917 10920 10922 10924 10926 10928 10930 10932 10934 10937 10939 10941 10942 10943 10944 10945 10946 10947 10948 10950 10951 10951 10951 10952 10952 10953 10952 10952 10951 10951 10949 10947 10946 10945 10944 10942 10942 10942 10942 10943 10942 10940 10938 10935 10932 10930 10928 10926 10924 10922 10920 10918 10916 10915 10914 10911 10908 10907 10906 10904 10902 10901 10899 10897 10894 10889
10859 10859 10861 10865 10869 10872 10875 10879 10882 10885 10888 10891 10895 10898 10900 10903 10905 10908 10910 10913 10916 10918 10920 10922 10924 10926 10929 10931 10933 10935 10936 10937 10938 10939 10940 10942 10943 10944 10945 10946 10947 10947 10947 10948 10948 10947 10946 10946 10945 10944 10942 10940 10939 10937 10936 10935 10935 10936 10936 10936 10934 10933 10930 10928 10927 10925 10923 10920 10917 10915 10913 10911 10909 10909 10907 10904 10902 10902 10900 10897 10896 10895 10893 10889 10886
10851 10852 10856 10861 10863 10866 10870 10874 10878 10881 10884 10886 10890 10893 10896 10899 10900 10903 10906 10909 10911 10913 10916 10918 10920 10922 10925 10927 10928 10930 10931 10932 10933 10934 10936 10937 10938 10939 10940 10941 10942 10942 10942 10943 10942 10942 10941 10940 10939 10938 10936 10934 10933 10931 10930 10929 10929 10929 10929 10928 10928 10927 10925 10923 10922 10921 10919 10916 10913 10910 10908 10906 10905 10904 10903 10900 10898 10898 10897 10894 10891 10890 10888 10885 10882
10846 10850 10854 10856 10858 10862 10867 10870 10873 10876 10879 10882 10886 10889 10892 10894 10896 10899 10901 10903 10906 10909 10911 10914 10916 10918 10920 10922 10923 10925 10926 10927 10929 10930 10931 10932 10933 10934 10935 10936 10937 10937 10937 10937 10936 10935 10935 10935 10934 10932 10931 10929 10928 10927 10926 10925 10924 10924 10924 10923 10922 10921 10920 10919 10918 10916 10914 10912 10910 10907 10904 10902 10901 10901 10898 10895 10894 10894 10892 10890 10887 10885 10884 10882 10878
10845 10848 10850 10852 10856 10859 10862 10865 10868 10871 10874 10878 10882 10885 10887 10890 10892 10894 10896 10898 10901 10904 10907 10909 10910 10912 10914 10916 10917 10919 10920 10922 10923 10924 10926 10927 10928 10929 10929 10930 10931 10931 10931 10930 10930 10929 10929 10928 10928 10927 10926 10924 10923 10923 10922 10921 10920 10920 10920 10919 10918 10916 10915 10915 10914 10913 10910 10907 10905 10903 10901 10898 10896 10896 10895 10891 10889 10888 10887 10886 10883 10879 10878 10878 10875
10842 10844 10846 10849 10853 10855 10857 10860 10862 10865 10870 10875 10877 10880 10882 10885 10887 10890 10891 10894 10897 10899 10901 10902 10904 10905 10908 10909 10911 10913 10914 10916 10917 10918 10920 10920 10921 10923 10923 10924 10925 10925 10925 10924 10924 10924 10923 10923 10923 10922 10921 10920 10919 10918 10917 10916 10915 10915 10914 10914 10913 10912 10911 10912 10911 10909 10906 10903 10901 10899 10897 10894 10892 10891 10890 10888 10885 10883 10881 10880 10878 10875 10874 10874 10873
10839 10841 10843 10847 10849 10850 10853 10856 10858 10861 10866 10868 10870 10874 10877 10879 10882 10884 10887 10889 10892 10893 10895 10897 10898 10900 10901 10903 10905 10907 10908 10910 10911 10912 10913 10914 10915 10916 10917 10918 10918 10919 10919 10919 10919 10919 10919 10918 10918 10917 10917 10916 10915 10914 10913 10910 10909 10909 10908 10908 10908 10906 10906 10907 10906 10903 10900 10898 10896 10894 10893 10891 10888 10885 10884 10883 10881 10878 10876 10874 10873 10871 10869 10869 10869
10835 10837 10840 10842 10844 10847 10850 10852 10854 10857 10860 10862 10865 10868 10870 10873 10876 10879 10881 10884 10885 10887 10889 10891 10893 10895 10896 10897 10899 10901 10902 10904 10905 10906 10907 10908 10909 10910 10910 10911 10912 10913 10914 10914 10914 10914 10914 10914 10914 10913 10913 10912 10910 10910 10908 10905 10903 10903 10902 10902 10901 10900 10899 10900 10899 10897 10893 10891 10890 10889 10888 10887 10885 10882 10879 10877 10875 10872 10870 10869 10868 10866 10865 10865 10864
10830 10833 10836 10838 10841 10844 10846 10848 10850 10852 10854 10857 10859 10862 10865 10868 10871 10873 10875 10877 10879 10881 10884 10885 10887 10889 10890 10892 10893 10895 10896 10898 10899 10901 10902 10903 10904 10905 10905 10906 10907 10908 10908 10908 10909 10909 10909 10909 10909 10909 10908 10908 10906 10906 10904 10902 10899 10897 10897 10896 10895 10893 10893 10893 10893 10890 10887 10885 10884 10883 10882 10881 10879 10877 10873 10870 10868 10866 10864 10864 10862 10861 10861 10860 10859
10826 10829 10832 10834 10838 10840 10841 10843 10845 10847 10849 10852 10854 10857 10860 10862 10864 10866 10869 10871 10874 10876 10877 10879 10881 10883 10884 10886 10888 10889 10890 10892 10894 10896 10897 10898 10899 10900 10901 10901 10902 10902 10903 10903 10903 10904 10904 10904 10904 10904 10903 10903 10902 10901 10900 10899 10896 10893 10892 10890 10889 10887 10886 10886 10886 10884 10880 10879 10879 10878 10876 10874 10871 10868 10866 10863 10860 10858 10858 10858 10857 10856 10856 10855 10853
10821 10824 10826 10829 10833 10835 10837 10839 10840 10842 10845 10847 10849 10853 10855 10856 10859 10861 10864 10867 10869 10870 10872 10873 10875 10877 10879 10881 10882 10884 10885 10887 10889 10890 10891 10892 10893 10895 10895 10896 10896 10897 10897 10898 10898 10899 10899 10898 10898 10898 10898 10897 10897 10896 10895 10895 10893 10890 10887 10884 10882 10881 10879 10878 10879 10877 10873 10872 10873 10871 10870 10867 10863 10860 10857 10855 10853 10851 10851 10853 10853 10851 10851 10850 10848
10816 10819 10821 10824 10828 10830 10832 10834 10836 10838 10840 10842 10845 10847 10849 10851 10854 10857 10859 10862 10864 10865 10867 10868 10870 10872 10874 10876 10877 10879 10881 10882 10884 10885 10886 10886 10887 10888 10889 10890 10890 10891 10892 10892 10892 10892 10893 10893 10893 10892 10892 10891 10891 10890 10889 10890 10890 10887 10883 10879 10877 10876 10873 10872 10872 10870 10867 10866 10866 10864 10862 10859 10856 10852 10850 10847 10846 10844 10844 10846 10847 10845 10844 10843 10842
10811 10813 10816 10819 10822 10825 10827 10829 10831 10833 10835 10838 10840 10842 10844 10847 10850 10852 10855 10857 10858 10860 10861 10863 10865 10867 10869 10871 10872 10874 10875 10877 10878 10879 10880 10881 10881 10882 10883 10884 10885 10886 10886 10886 10886 10886 10887 10887 10887 10887 10886 10886 10884 10883 10883 10883 10883 10882 10880 10876 10874 10871 10868 10866 10864 10862 10861 10860 10859 10856 10854 10851 10848 10845 10843 10841 10839 10837 10836 10837 10838 10838 10837 10836 10835
10804 10807 10810 10813 10816 10819 10821 10823 10825 10828 10831 10834 10836 10838 10840 10843 10845 10847 10849 10851 10853 10854 10856 10858 10860 10862 10863 10865 10866 10868 10869 10871 10872 10873 10874 10875 10875 10876 10877 10878 10879 10880 10879 10879 10880 10880 10881 10881 10881 10880 10880 10880 10878 10877 10877 10877 10877 10876 10875 10872 10869 10865 10862 10859 10856 10854 10854 10854 10852 10849 10846 10843 10840 10838 10836 10835 10833 10831 10830 10829 10830 10830 10829 10828 10828
10796 10799 10803 10806 10809 10813 10815 10817 10819 10823 10826 10829 10831 10834 10836 10838 10839 10841 10843 10845 10847 10848 10850 10853 10854 10856 10858 10858 10859 10862 10863 10864 10865 10867 10867 10868 10869 10869 10870 10872 10873 10873 10872 10872 10873 10874 10875 10875 10874 10873 10873 10873 10872 10870 10870 10870 10870 10869 10868 10866 10863 10859 10856 10852 10848 10846 10846 10846 10844 10841 10839 10836 10833 10831 10829 10828 10826 10824 10824 10822 10822 10822 10821 10821 10822
10788 10792 10795 10799 10804 10807 10810 10812 10814 10818 10821 10823 10826 10828 10831 10831 10833 10835 10837 10839 10840 10842 10845 10847 10848 10850 10851 10851 10853 10856 10856 10856 10858 10860 10860 10860 10861 10862 10864 10865 10865 10865 10865 10865 10866 10867 10867 10867 10867 10866 10866 10866 10866 10864 10863 10862 10862 10861 10860 10859 10856 10853 10849 10845 10841 10839 10838 10837 10834 10833 10832 10829 10825 10822 10820 10819 10817 10817 10816 10815 10814 10813 10813 10814 10816